Location: Starlight Observatory
(38.4029°N, 85.8936°W)
Time: 10:42:12
(UTC-04:00)

Iridium 84 - Visible Passes

Search period start: 27 April 2017 00:00
Search period end: 07 May 2017 00:00
Orbit: 776 x 779 km, 86.4° (Epoch: 25 April)

Date Brightness Start Highest point End Pass type
(mag) Time Alt. Az. Time Alt. Az. Time Alt. Az.
27 Apr 6.6 00:01:42 10° N 00:05:13 43° NNW 00:05:13 43° NNW visible
27 Apr 6.3 23:28:11 10° N 23:31:58 45° NNE 23:31:58 45° NNE visible
28 Apr 8.1 01:10:55 10° NW 01:12:28 13° WNW 01:12:28 13° WNW visible
28 Apr 6.6 22:55:02 10° NNE 22:58:45 30° ENE 22:58:45 30° ENE visible
29 Apr 7.4 00:36:01 10° NNW 00:39:14 24° WNW 00:39:14 24° WNW visible
29 Apr 7.2 22:22:27 10° NE 22:25:32 18° ENE 22:25:32 18° ENE visible
30 Apr 6.5 00:01:55 10° NNW 00:06:01 43° WNW 00:06:01 43° WNW visible
30 Apr 5.7 23:28:12 10° N 23:32:49 70° N 23:32:49 70° N visible
01 May 5.9 22:54:50 10° N 22:59:37 47° ENE 22:59:37 47° ENE visible
02 May 7.7 00:36:44 10° NW 00:40:06 18° W 00:40:06 18° W visible
02 May 6.6 22:21:52 10° NNE 22:26:10 26° E 22:26:25 26° E visible
03 May 6.8 00:02:15 10° NNW 00:06:53 33° W 00:06:55 33° W visible
03 May 7.3 21:49:41 10° NE 21:52:20 14° ENE 21:53:15 13° E visible
03 May 5.7 23:28:20 10° N 23:33:30 62° W 23:33:44 61° WSW visible
04 May 5.4 22:54:45 10° N 22:59:59 70° E 23:00:35 64° SE visible
05 May 8.0 00:38:04 10° NW 00:39:59 12° WNW 00:41:04 11° W visible
05 May 6.1 22:21:31 10° NNE 22:26:21 37° E 22:27:26 33° ESE visible
06 May 7.4 00:02:47 10° NNW 00:06:47 23° W 00:07:55 21° W visible
06 May 6.9 21:48:46 10° NNE 21:52:36 20° ENE 21:54:18 17° ESE visible
06 May 6.5 23:28:35 10° NNW 23:33:29 42° W 23:34:47 35° WSW visible
